K9SCH Weather Reports


Display with metric or nautical units.
time (UTC)temp
F
wind
direction
speed
MPH
gust
MPH
rain 1hr
in
rain 24hr
in
rain mn
in
humidity
%
barometer
mb
20260510183516 97 23 3.0 6.0 0.00 0.00 0.00 7 1012.3
20260510182515 97 0.0 4.0 0.00 0.00 0.00 7 1012.4
20260510181537 97 293 3.0 8.0 0.00 0.00 0.00 7 1012.5
20260510180517 97 248 1.0 6.0 0.00 0.00 0.00 7 1012.4
20260510175515 96 270 1.0 5.0 0.00 0.00 0.00 8 1012.4
20260510174516 95 225 1.0 4.0 0.00 0.00 0.00 8 1012.4
20260510173515 95 293 3.0 7.0 0.00 0.00 0.00 8 1012.4
20260510172536 95 0.0 1.0 0.00 0.00 0.00 8 1012.4
20260510171515 93 293 3.0 6.0 0.00 0.00 0.00 9 1012.3
20260510170515 93 248 3.0 6.0 0.00 0.00 0.00 9 1012.3
20260510165516 93 293 2.0 5.0 0.00 0.00 0.00 9 1012.2
20260510164515 93 270 2.0 5.0 0.00 0.00 0.00 9 1012.2
20260510163536 92 203 1.0 7.0 0.00 0.00 0.00 10 1012.0
20260510162515 93 248 2.0 6.0 0.00 0.00 0.00 9 1012.1
20260510161515 92 203 2.0 5.0 0.00 0.00 0.00 10 1012.0
20260510160516 91 203 2.0 5.0 0.00 0.00 0.00 10 1011.9
20260510155515 90 158 3.0 6.0 0.00 0.00 0.00 10 1011.9
20260510154538 89 158 4.0 7.0 0.00 0.00 0.00 11 1011.9
20260510153515 88 158 5.0 10.0 0.00 0.00 0.00 11 1011.8
20260510152515 89 158 4.0 8.0 0.00 0.00 0.00 11 1011.9
20260510151517 89 158 3.0 7.0 0.00 0.00 0.00 11 1011.8
20260510150515 88 158 3.0 5.0 0.00 0.00 0.00 11 1011.7
20260510145536 87 135 3.0 5.0 0.00 0.00 0.00 11 1011.7
20260510144515 87 135 2.0 5.0 0.00 0.00 0.00 12 1011.4
20260510143516 85 158 3.0 5.0 0.00 0.00 0.00 12 1011.3
20260510142515 84 135 3.0 5.0 0.00 0.00 0.00 13 1011.0
20260510141515 82 135 2.0 5.0 0.00 0.00 0.00 13 1010.9
20260510140536 80 135 2.0 4.0 0.00 0.00 0.00 14 1010.6
20260510135515 79 135 3.0 6.0 0.00 0.00 0.00 15 1010.4
20260510134515 77 135 3.0 5.0 0.00 0.00 0.00 15 1010.3
20260510133515 76 135 2.0 4.0 0.00 0.00 0.00 16 1010.2
20260510132515 74 135 3.0 5.0 0.00 0.00 0.00 16 1010.0
20260510131536 0 0.0 0.0 0.00 0.00 0.00
20260510130516 0 0.0 0.0 0.00 0.00 0.00
20260510130028 0 0.0 0.0 0.00 0.00 0.00
20260510125520 0 0.0 0.0 0.00 0.00 0.00
20260510125015 0 0.0 0.0 0.00 0.00 0.00
20260510124035 0 0.0 0.0 0.00 0.00 0.00
20260510123528 0 0.0 0.0 0.00 0.00 0.00
20260510123020 0 0.0 0.0 0.00 0.00 0.00
20260510122517 0 0.0 0.0 0.00 0.00 0.00
20260510121517 0 0.0 0.0 0.00 0.00 0.00
20260510121052 0 0.0 0.0 0.00 0.00 0.00
20260510120523 0 0.0 0.0 0.00 0.00 0.00
20260510120017 0 0.0 0.0 0.00 0.00 0.00
20260510115018 0 0.0 0.0 0.00 0.00 0.00
20260510114530 0 0.0 0.0 0.00 0.00 0.00
20260510114039 0 0.0 0.0 0.00 0.00 0.00
20260510113517 0 0.0 0.0 0.00 0.00 0.00
20260510112517 0 0.0 0.0 0.00 0.00 0.00
20260510112032 0 0.0 0.0 0.00 0.00 0.00
20260510111521 0 0.0 0.0 0.00 0.00 0.00
20260510111037 0 0.0 0.0 0.00 0.00 0.00
20260510110019 0 0.0 0.0 0.00 0.00 0.00
20260510105526 0 0.0 0.0 0.00 0.00 0.00
20260510105018 0 0.0 0.0 0.00 0.00 0.00
20260510104517 0 0.0 0.0 0.00 0.00 0.00
20260510103537 0 0.0 0.0 0.00 0.00 0.00
20260510103028 0 0.0 0.0 0.00 0.00 0.00
20260510102519 0 0.0 0.0 0.00 0.00 0.00
20260510102017 0 0.0 0.0 0.00 0.00 0.00
20260510101017 0 0.0 0.0 0.00 0.00 0.00
20260510100553 72 0.0 0.0 0.00 0.00 0.00 17 1009.0
20260510100025 72 113 2.0 3.0 0.00 0.00 0.00 17 1009.0
20260510095017 72 113 2.0 3.0 0.00 0.00 0.00 16 1008.9
20260510094017 73 113 2.0 3.0 0.00 0.00 0.00 16 1009.0
20260510093017 73 113 2.0 3.0 0.00 0.00 0.00 16 1009.0
20260510092038 73 113 2.0 3.0 0.00 0.00 0.00 16 1009.0
20260510091018 73 113 2.0 3.0 0.00 0.00 0.00 16 1009.0
20260510090019 74 135 2.0 3.0 0.00 0.00 0.00 16 1008.9
20260510085017 74 113 1.0 4.0 0.00 0.00 0.00 16 1009.0
20260510084017 74 113 2.0 3.0 0.00 0.00 0.00 16 1008.9
20260510083037 75 113 2.0 3.0 0.00 0.00 0.00 15 1008.9
20260510082017 74 135 2.0 4.0 0.00 0.00 0.00 16 1008.9
20260510081020 74 135 2.0 3.0 0.00 0.00 0.00 16 1008.9
20260510080017 73 135 2.0 3.0 0.00 0.00 0.00 16 1008.9
20260510075017 74 113 2.0 3.0 0.00 0.00 0.00 16 1008.9
20260510074037 73 0.0 1.0 0.00 0.00 0.00 16 1008.9
20260510073017 74 0.0 1.0 0.00 0.00 0.00 16 1008.9
20260510072017 74 0.0 1.0 0.00 0.00 0.00 15 1009.0
20260510071019 74 0.0 1.0 0.00 0.00 0.00 15 1008.8
20260510070113 74 0.0 0.0 0.00 0.00 0.00 15 1008.8
20260510065537 74 113 1.0 3.0 0.00 0.00 0.00 16 1008.7
20260510064516 74 0.0 3.0 0.00 0.00 0.00 16 1008.6
20260510063516 74 0.0 0.0 0.00 0.00 0.00 15 1008.4
20260510062517 75 0.0 1.0 0.00 0.00 0.00 15 1008.4
20260510061516 76 0.0 0.0 0.00 0.00 0.00 15 1008.4
20260510060537 77 0.0 0.0 0.00 0.00 0.00 15 1008.5
20260510055516 77 135 1.0 3.0 0.00 0.00 0.00 14 1008.2
20260510054516 77 0.0 0.0 0.00 0.00 0.00 15 1008.1
20260510053516 78 0.0 1.0 0.00 0.00 0.00 14 1008.0
20260510052518 79 0.0 0.0 0.00 0.00 0.00 14 1008.1
20260510051537 80 0.0 0.0 0.00 0.00 0.00 13 1008.1
20260510050517 80 0.0 0.0 0.00 0.00 0.00 13 1008.0
20260510045519 81 0.0 1.0 0.00 0.00 0.00 13 1008.0
20260510044516 82 0.0 0.0 0.00 0.00 0.00 13 1007.9
20260510043516 84 0.0 0.0 0.00 0.00 0.00 12 1008.0
20260510042536 84 270 1.0 3.0 0.00 0.00 0.00 12 1007.9
20260510041516 83 0.0 0.0 0.00 0.00 0.00 13 1007.8
20260510040516 86 0.0 0.0 0.00 0.00 0.00 12 1007.9
20260510035516 87 0.0 1.0 0.00 0.00 0.00 12 1007.8
20260510034516 87 293 1.0 3.0 0.00 0.00 0.00 11 1007.7
20260510033537 87 0.0 2.0 0.00 0.00 0.00 11 1007.6
20260510032516 88 0.0 2.0 0.00 0.00 0.00 11 1007.6
20260510031516 89 293 1.0 3.0 0.00 0.00 0.00 11 1007.5
20260510030517 89 0.0 1.0 0.00 0.00 0.00 10 1007.3
20260510025519 90 0.0 1.0 0.00 0.00 0.00 10 1007.2
20260510024536 90 0.0 0.0 0.00 0.00 0.00 10 1007.1
20260510023516 92 293 1.0 4.0 0.00 0.00 0.00 10 1007.1
20260510022516 93 293 2.0 4.0 0.00 0.00 0.00 9 1007.0
20260510021516 94 293 1.0 4.0 0.00 0.00 0.00 9 1007.1
20260510020516 95 293 1.0 4.0 0.00 0.00 0.00 8 1007.0
20260510015536 96 293 4.0 7.0 0.00 0.00 0.00 8 1007.0
20260510014516 97 293 3.0 8.0 0.00 0.00 0.00 8 1007.1
20260510013516 97 293 4.0 8.0 0.00 0.00 0.00 8 1007.1
20260510012517 97 293 6.0 11.0 0.00 0.00 0.00 8 1007.0
20260510011516 98 293 4.0 9.0 0.00 0.00 0.00 7 1007.0
20260510010540 98 293 6.0 11.0 0.00 0.00 0.00 7 1007.0
20260510005519 99 293 4.0 9.0 0.00 0.00 0.00 7 1007.1
20260510004516 98 293 4.0 9.0 0.00 0.00 0.00 7 1007.2
20260510003516 99 270 7.0 12.0 0.00 0.00 0.00 7 1007.3
20260510002516 99 293 5.0 11.0 0.00 0.00 0.00 7 1007.4
20260510001536 99 293 3.0 7.0 0.00 0.00 0.00 7 1007.4
20260510000516 99 270 4.0 12.0 0.00 0.00 0.00 8 1007.4
20260509235516 99 293 5.0 9.0 0.00 0.00 0.00 7 1007.5
20260509234516 99 338 5.0 12.0 0.00 0.00 0.00 7 1007.6
20260509233517 100 293 3.0 9.0 0.00 0.00 0.00 7 1007.7
20260509232536 99 270 9.0 16.0 0.00 0.00 0.00 7 1007.7
20260509231516 99 270 7.0 12.0 0.00 0.00 0.00 8 1007.7
20260509230516 99 270 5.0 14.0 0.00 0.00 0.00 8 1007.8
20260509225516 99 293 5.0 11.0 0.00 0.00 0.00 8 1007.9
20260509224516 100 293 9.0 15.0 0.00 0.00 0.00 8 1008.1
20260509223536 99 293 3.0 10.0 0.00 0.00 0.00 8 1008.2
20260509222516 98 293 1.0 5.0 0.00 0.00 0.00 8 1008.1
20260509221516 99 270 6.0 11.0 0.00 0.00 0.00 8 1008.4
20260509220519 99 338 6.0 14.0 0.00 0.00 0.00 8 1008.5
20260509215519 99 293 6.0 13.0 0.00 0.00 0.00 7 1008.7
20260509214536 98 270 3.0 9.0 0.00 0.00 0.00 8 1008.8
20260509213516 99 293 5.0 11.0 0.00 0.00 0.00 8 1009.1
20260509212516 98 248 5.0 11.0 0.00 0.00 0.00 8 1009.2
20260509211517 99 270 7.0 11.0 0.00 0.00 0.00 8 1009.4
20260509210516 98 270 4.0 9.0 0.00 0.00 0.00 9 1009.4
20260509205536 98 293 5.0 11.0 0.00 0.00 0.00 9 1009.7
20260509204516 98 338 5.0 11.0 0.00 0.00 0.00 9 1009.8
20260509203516 98 293 6.0 11.0 0.00 0.00 0.00 9 1010.0
20260509202518 97 270 4.0 10.0 0.00 0.00 0.00 9 1010.2
20260509201516 97 270 6.0 10.0 0.00 0.00 0.00 9 1010.3
20260509200536 97 270 7.0 15.0 0.00 0.00 0.00 10 1010.5
20260509195516 96 270 5.0 11.0 0.00 0.00 0.00 10 1010.5
20260509194515 96 293 7.0 16.0 0.00 0.00 0.00 9 1010.6
20260509193516 97 270 5.0 10.0 0.00 0.00 0.00 10 1010.8
20260509192515 95 270 4.0 12.0 0.00 0.00 0.00 10 1010.9
20260509191536 95 270 5.0 12.0 0.00 0.00 0.00 10 1011.0
20260509190516 95 270 3.0 10.0 0.00 0.00 0.00 10 1011.0
20260509185515 95 338 4.0 9.0 0.00 0.00 0.00 10 1011.2
20260509184516 95 270 3.0 9.0 0.00 0.00 0.00 10 1011.3